Powrót do katalogu

STARLINK-36527

AktywnyŁącznośćVLEO
NORAD 67631·PAYLOAD·🇺🇸 United States

Wystrzelony Jan 30, 2026 z Cape Canaveral Space Force Station

Loading…

Następne Przeloty (najbliższe 24 godziny)

TLE

ŚwieżeSource: CelesTrak SupGP

Epoka: Sep 14, 2026, 21:35 UTC

1 67631C 26020Q   26257.89979167 -.00033826  00000+0 -12252-2 0  2575
2 67631  43.0010 151.6508 0001432 256.2060 186.9441 15.27593094    19

Śledź STARLINK-36527 w czasie rzeczywistym z AllMySat

Download on the App Store